This demonstration page uses our WeatherBlox Daily Observations layout. Learn more.

Left ArrowRight Arrow

Hourly Observations for February 18, 2016

Temp ( °F °C ) Dew Point ( °F °C ) Humidity (%) Winds ( mph kmh ) Pressure ( in mb ) Visibility ( mi km ) Precip ( " mm )
12:53 am 00:53 Cloudy with Light Rain 49 9.4 42 5.6 77 77 S 15 24 29.54 1000 10 16 0.00 0.03
1:53 am 01:53 Cloudy 49 9.4 42 5.6 77 77 S 17 28 29.55 1001 10 16 0.00 0.03
2:53 am 02:53 Cloudy with Light Rain 49 9.4 43 6.1 80 80 S 18 30 29.56 1001 10 16 0.00 0.03
3:19 am 03:19 Cloudy with Light Rain 49 9.4 43 6.1 80 80 S 15 24 29.59 1002 9 14 0.02 0.51
3:53 am 03:53 Cloudy with Light Rain 49 9.4 44 6.7 83 83 SSW 14 22 29.57 1002 10 16 0.03 0.76
4:40 am 04:40 Cloudy with Light Rain 48 9 45 7 87 87 S 18 30 29.62 1003 5 8 0.00 0.00
4:48 am 04:48 Cloudy with Light Rain 48 9 45 7 87 87 S 14 22 29.62 1003 10 16 0.00 0.00
4:53 am 04:53 Cloudy with Light Rain 49 9.4 45 7.2 86 86 S 14 22 29.59 1002 10 16 0.06 1.52
5:53 am 05:53 Cloudy 49 9.4 44 6.7 83 83 SSW 12 19 29.63 1003 10 16 0.00 0.03
6:01 am 06:01 Cloudy 49 9.4 44 6.7 83 83 SSW 13 20 29.68 1005 10 16 0.00 0.00
6:14 am 06:14 Cloudy 48 9 45 7 87 87 S 10 17 29.68 1005 10 16 0.00 0.00
6:53 am 06:53 Cloudy 49 9.4 44 6.7 83 83 S 15 24 29.65 1004 10 16 0.03 0.76
7:00 am 07:00 Cloudy 48 9 45 7 87 87 S 17 28 29.68 1005 10 16 0.00 0.00
7:07 am 07:07 Mostly Cloudy 49 9.4 44 6.7 83 83 S 16 26 29.71 1006 10 16 0.00 0.00
7:30 am 07:30 Cloudy 48 9 45 7 87 87 S 17 28 29.71 1006 10 16 0.00 0.00
7:53 am 07:53 Cloudy 49 9.4 44 6.7 83 83 S 17 28 29.71 1006 10 16 0.00 0.03
8:53 am 08:53 Mostly Cloudy 50 10 44 6.7 80 80 S 20 31 29.77 1008 10 16 0.00 0.00
9:00 am 09:00 Cloudy 50 10 45 7 82 82 S 21 33 29.80 1009 10 16 0.00 0.00
9:40 am 09:40 Cloudy 52 11 45 7 77 77 S 21 33 29.83 1010 10 16 0.00 0.00
9:53 am 09:53 Mostly Cloudy 52 11.1 45 7.2 77 77 S 20 31 29.79 1009 10 16 0.00 0.00
10:53 am 10:53 Cloudy 54 12.2 44 6.7 69 69 S 24 39 29.81 1010 10 16 0.00 0.00
11:11 am 11:11 Mostly Cloudy 55 12.8 46 7.8 72 72 SSE 29 46 29.83 1010 10 16 0.00 0.00
11:53 am 11:53 Cloudy 56 13.3 45 7.2 67 67 SSE 29 46 29.82 1010 10 16 0.00 0.00
12:14 pm 12:14 Cloudy 57 14 45 7 63 63 SSE 26 43 29.83 1010 10 16 0.00 0.00
12:53 pm 12:53 Cloudy 56 13.3 44 6.7 65 65 S 32 52 29.81 1010 10 16 0.00 0.00
1:53 pm 13:53 Cloudy 57 13.9 46 7.8 67 67 S 28 44 29.82 1010 10 16 0.00 0.00
2:53 pm 14:53 Cloudy 58 14.4 46 7.8 65 65 S 28 44 29.83 1010 10 16 0.00 0.00
3:53 pm 15:53 Cloudy 57 13.9 47 8.3 69 69 SSE 33 54 29.87 1012 10 16 0.00 0.00
4:53 pm 16:53 Mostly Cloudy 55 12.8 47 8.3 74 74 S 30 48 29.92 1013 10 16 0.00 0.00
5:53 pm 17:53 Mostly Cloudy 54 12.2 47 8.3 77 77 S 21 33 29.95 1014 10 16 0.00 0.00
6:53 pm 18:53 Partly Cloudy 54 12.2 46 7.8 75 75 S 25 41 29.94 1014 10 16 0.00 0.03
7:53 pm 19:53 Partly Cloudy 53 11.7 45 7.2 74 74 S 22 35 29.94 1014 10 16 0.00 0.00
8:53 pm 20:53 Partly Cloudy 53 11.7 45 7.2 74 74 S 23 37 29.95 1014 10 16 0.00 0.00
9:53 pm 21:53 Clear 52 11.1 45 7.2 77 77 S 17 28 29.97 1015 10 16 0.00 0.00
10:53 pm 22:53 Cloudy 54 12.2 44 6.7 69 69 S 22 35 29.95 1014 10 16 0.00 0.00
11:53 pm 23:53 Cloudy 53 11.7 44 6.7 72 72 S 16 26 29.95 1014 10 16 0.00 0.00

Powered by AerisWeather